Probability
0 0 0 0 0 0 0 0 0 0 0 0 0 0 0 0 0 0 0 0 0 0 0 1 2 3 1 0 0 0 0 0 0 0 1 2 3 3 3 3 3 2 1 0 0 0 0 0 0
0 0 0 0 0 0 0 0 0 0 0 0 0 0 0 0 0 0 0 0 0 0 0 1 2 3 2 1 1 0 0 0 0 1 1 1 2 3 3 3 3 3 1 0 0 0 0 0 0
0 0 0 0 0 0 0 0 0 0 0 0 0 0 0 0 0 0 0 0 0 0 0 1 2 3 3 3 2 1 0 0 0 1 1 1 1 3 3 3 3 3 2 1 0 0 0 0 0
0 0 0 0 0 0 0 0 0 0 0 0 0 0 0 0 0 0 0 0 0 0 0 0 2 3 4 3 3 1 0 0 0 1 1 0 1 2 3 3 3 3 2 1 0 0 0 0 0
0 0 0 0 0 0 0 0 0 0 0 0 0 0 0 0 0 0 0 0 0 0 0 0 1 2 3 3 3 2 1 0 0 0 0 0 0 1 2 3 3 3 3 1 1 0 0 0 0
0 0 0 0 0 0 0 0 0 0 0 0 0 0 0 0 0 0 0 0 0 0 1 1 0 1 2 2 2 2 1 0 0 0 0 0 0 0 1 2 3 3 3 3 2 1 0 0 0
0 0 0 0 0 0 0 0 0 0 0 0 0 0 0 0 0 1 0 0 0 1 2 2 1 0 1 1 1 1 1 0 0 0 0 0 0 0 0 1 2 3 3 3 2 1 0 0 0
0 0 0 0 0 0 0 0 0 0 0 0 0 0 0 0 0 0 0 0 0 1 2 2 1 0 0 0 0 0 0 0 0 0 0 0 0 0 0 0 1 3 3 3 2 1 0 0 0
0 0 0 0 0 0 0 0 0 0 0 0 0 0 0 0 0 0 0 0 0 1 1 1 1 0 0 0 1 1 0 0 0 0 0 0 0 0 0 0 1 2 3 3 2 1 0 0 0
0 0 0 0 0 0 0 0 0 0 0 0 0 0 0 0 0 0 0 0 0 0 1 2 2 1 0 1 2 2 1 0 0 0 0 0 0 0 0 0 1 2 3 3 2 1 0 0 0
0 0 0 0 0 0 0 0 0 0 0 0 0 0 0 0 0 0 0 0 1 1 2 4 4 3 2 2 3 2 1 0 0 1 1 1 0 0 0 0 1 3 3 2 1 1 0 0 0
0 0 0 0 0 0 0 0 0 0 0 0 0 0 0 0 0 0 0 0 1 2 3 4 5 5 4 3 3 3 1 0 1 2 2 2 1 0 0 0 2 4 5 3 1 1 0 0 0
0 0 0 0 0 0 0 0 0 0 0 0 0 0 0 0 0 0 0 0 1 1 3 4 6 6 4 4 4 5 3 1 1 1 1 2 1 1 1 1 2 4 4 3 2 1 0 0 0
0 0 0 0 0 0 0 0 0 0 0 0 0 0 0 0 0 0 0 0 0 1 3 5 6 6 5 4 4 5 5 3 2 1 1 1 2 2 2 2 2 3 3 2 1 0 0 0 0
0 0 0 0 0 0 0 0 0 0 0 0 0 0 0 0 0 0 0 0 0 1 2 3 4 5 6 5 4 4 5 4 3 3 2 1 1 3 3 3 3 1 1 1 1 0 0 0 0
0 0 0 0 0 0 0 0 0 0 0 0 0 0 0 0 0 0 0 0 0 0 1 1 3 4 5 5 4 4 5 5 4 3 3 2 1 2 3 3 2 1 0 1 1 0 0 0 0
0 0 0 0 0 0 0 0 0 0 0 0 0 0 0 0 0 0 0 0 0 0 0 1 2 3 4 5 5 4 4 4 3 3 3 2 1 1 2 3 2 1 0 0 0 0 0 0 0
0 0 0 0 0 0 0 0 0 0 0 0 0 0 0 0 0 0 0 0 0 0 0 0 1 3 3 4 5 5 4 3 3 3 3 2 1 1 1 1 1 1 0 0 0 0 0 0 0
0 0 0 0 0 0 0 0 0 0 0 0 0 0 0 0 0 0 0 0 0 0 0 0 1 2 3 3 4 4 3 3 3 3 3 3 2 2 1 0 0 0 0 0 0 0 0 0 0
0 0 0 0 0 0 0 0 0 0 0 0 0 0 0 0 0 0 0 0 0 0 0 0 1 2 3 3 3 3 3 3 3 3 3 3 3 3 2 1 0 0 0 0 0 0 0 0 0
0 0 0 0 0 0 0 0 0 0 0 0 0 0 0 0 0 0 0 0 0 0 0 0 0 1 3 3 3 3 2 2 3 3 3 3 3 3 2 1 0 0 0 0 0 0 0 0 0
0 0 0 0 0 0 0 0 0 0 0 0 0 0 0 0 0 0 0 0 0 0 0 0 0 1 2 3 3 3 2 2 2 3 3 3 3 3 3 1 0 0 0 0 0 0 0 0 0
0 0 0 0 0 0 0 0 0 0 0 0 0 0 0 0 0 0 0 0 0 0 0 0 0 1 2 3 3 3 3 1 1 2 3 3 3 3 3 2 1 1 0 0 0 0 0 0 0
0 0 0 0 0 0 0 0 0 0 0 0 0 0 0 0 0 0 0 0 0 0 0 0 0 1 2 2 2 3 3 2 1 1 2 3 3 3 3 3 3 2 1 1 0 0 0 0 0
0 0 0 0 0 0 0 0 0 0 0 0 0 0 0 0 0 0 0 0 0 0 0 0 0 0 1 1 1 1 2 2 1 0 1 2 3 3 3 3 3 3 3 2 1 0 0 0 0
0 0 0 0 0 0 0 0 0 0 0 0 0 0 0 0 0 0 0 0 0 0 0 0 0 0 0 0 0 0 1 1 0 0 0 1 2 2 2 3 3 3 3 3 2 1 0 0 0
0 0 0 0 0 0 0 0 0 0 0 0 0 0 0 0 0 0 0 0 0 0 0 0 0 0 0 0 0 0 0 0 0 0 0 0 1 1 1 1 2 3 3 3 3 2 1 0 0
0 0 0 0 0 0 0 0 0 0 0 0 0 0 0 0 0 0 0 0 0 0 0 0 0 0 0 0 0 0 0 0 0 0 0 0 0 0 0 0 1 3 3 3 3 2 1 0 0
0 0 0 0 0 0 0 0 0 0 0 0 0 0 0 0 0 0 0 0 0 0 0 0 0 0 0 0 0 0 0 0 0 0 0 0 0 0 0 0 1 2 2 2 2 1 1 0 0
0 0 0 0 0 0 0 0 0 0 0 0 0 0 0 0 0 0 0 0 0 0 0 0 0 0 0 0 0 0 0 0 0 0 0 0 0 0 0 0 0 1 1 1 1 0 0 0 0
Wind_Speed
4 3 2 2 3 4 5 3 2 2 2 1 1 1 1 1 2 3 4 4 4 7 6 6 5 7 8 8 8 7 7 7 7 7 7 8 8 7 7 7 7 7 7 8 9 9 10 9 9
3 2 2 2 4 6 4 3 4 2 1 1 1 1 1 1 3 3 3 3 5 7 6 6 6 7 8 8 7 7 7 7 7 7 7 7 7 7 7 7 6 7 7 8 8 9 9 9 9
1 2 1 3 4 5 3 2 2 1 0 2 1 0 1 1 2 1 2 4 6 6 6 6 6 7 8 8 7 6 6 6 7 7 7 7 6 7 7 7 6 6 6 7 8 8 9 8 9
1 1 1 4 6 4 2 1 2 2 2 1 1 2 2 2 2 1 3 5 6 6 5 6 5 7 7 7 7 6 6 6 6 7 6 6 6 5 6 6 6 5 6 6 7 8 8 8 8
1 2 4 5 6 3 2 2 2 3 2 1 2 1 1 2 2 3 4 5 6 6 5 5 5 6 7 7 7 6 6 6 6 6 6 6 5 5 5 6 6 6 6 6 6 7 7 7 7
2 3 5 7 7 4 3 3 3 4 3 1 1 1 1 3 2 3 4 4 5 5 4 4 4 4 5 6 6 5 5 6 6 6 6 6 5 4 4 5 5 5 6 6 6 6 6 6 6
3 3 5 6 6 5 3 2 3 4 4 2 2 2 2 2 2 3 4 4 4 4 4 3 4 4 4 4 5 4 4 5 5 6 6 5 4 4 4 4 4 5 5 6 6 6 6 5 6
1 3 5 6 6 5 2 2 1 3 3 1 2 3 1 1 2 3 4 4 4 3 3 3 3 3 4 4 4 4 4 4 4 5 5 5 5 4 4 3 4 5 5 5 5 5 5 5 5
2 5 6 6 5 3 3 3 1 1 0 0 1 3 3 3 4 4 4 3 3 2 2 2 2 2 2 3 4 4 4 4 4 4 5 3 2 2 3 3 3 4 5 5 4 5 5 5 5
4 6 6 2 3 2 2 2 1 2 2 2 2 2 1 3 4 5 5 5 5 4 3 2 2 2 2 2 3 3 2 3 2 2 3 2 1 1 2 4 3 4 4 4 5 5 4 2 2
3 5 3 3 2 2 2 2 1 3 4 5 4 4 2 3 4 5 5 5 5 5 3 3 3 3 2 2 2 2 2 2 2 2 2 2 1 1 1 1 1 2 2 3 3 3 2 1 1
3 3 3 2 2 2 3 3 2 5 6 3 3 3 3 4 5 6 6 5 5 5 5 4 4 3 3 3 2 2 2 2 2 2 2 2 1 1 1 0 1 1 1 2 2 1 1 1 1
5 3 2 2 2 2 2 5 5 7 7 5 3 3 4 5 6 6 5 5 5 5 5 5 4 4 3 3 3 2 3 2 2 2 2 2 2 1 1 1 1 1 1 2 2 2 2 2 1
3 3 3 3 3 3 4 6 6 8 5 5 4 5 6 6 7 6 5 6 6 6 6 5 5 5 4 4 3 3 3 2 2 2 3 3 2 2 1 1 1 2 2 1 2 2 2 2 1
2 3 3 3 3 2 3 7 8 7 5 5 6 6 6 6 6 7 7 7 7 7 6 6 6 5 5 5 4 3 3 3 2 2 3 3 3 3 2 2 2 1 2 2 2 2 2 2 2
3 4 5 2 2 2 4 9 5 4 5 6 7 7 7 7 7 7 7 7 6 6 6 6 5 6 6 5 5 3 3 3 3 2 3 4 3 3 3 2 2 2 2 2 2 2 2 2 1
4 5 6 3 2 2 5 9 4 2 4 7 7 7 7 7 7 7 7 7 7 7 6 6 6 6 6 6 5 4 4 3 3 3 2 3 3 4 3 3 2 3 3 2 2 2 2 2 2
5 6 5 5 1 3 7 11 8 5 6 8 8 8 8 8 8 7 6 6 6 6 6 6 6 6 6 5 4 4 4 4 3 3 3 3 3 3 3 3 3 3 3 3 3 3 2 2 2
3 5 7 5 1 4 8 12 12 9 8 10 9 9 9 8 7 5 5 5 5 6 6 7 6 6 6 5 5 4 5 4 4 3 4 4 4 4 3 3 3 4 4 4 4 3 3 2 1
5 7 7 4 1 4 7 13 13 10 10 10 10 10 9 8 7 5 4 4 5 6 6 6 7 6 7 6 5 4 4 4 4 3 4 5 5 5 4 4 3 4 4 5 5 4 3 2 2
7 9 7 5 3 4 7 11 9 7 6 7 8 9 8 7 7 5 4 4 4 5 5 5 6 6 7 7 5 3 3 3 4 4 4 5 5 5 5 5 4 4 4 5 5 5 5 4 3
7 5 6 5 5 4 3 8 8 6 6 7 7 6 6 5 5 5 4 4 4 4 4 4 5 6 6 7 7 7 6 5 5 4 4 4 5 5 5 5 5 4 4 4 5 5 5 5 4
4 2 4 4 5 6 5 8 8 3 7 6 4 4 4 4 4 4 4 4 3 3 3 3 3 4 5 6 7 7 6 5 4 4 4 4 4 4 4 5 5 5 5 5 5 5 5 5 5
4 3 2 2 3 6 6 8 8 3 5 4 3 3 3 3 4 4 3 3 3 2 2 2 3 3 4 5 6 7 7 5 4 4 4 4 3 3 4 4 4 5 4 5 5 5 6 6 6
4 4 2 3 4 6 2 7 9 4 4 4 5 4 4 3 3 3 3 3 2 2 2 2 2 2 3 4 5 6 6 6 6 5 5 4 3 3 4 4 4 4 4 5 5 5 6 6 6
7 6 5 5 5 4 4 9 6 3 4 4 5 4 3 3 3 3 3 3 2 3 2 2 3 3 3 3 4 5 5 4 4 5 4 5 4 4 4 4 4 5 4 4 5 4 5 5 6
6 6 3 1 1 5 6 7 8 4 3 2 2 2 2 2 2 3 3 2 2 3 3 3 3 3 3 4 4 5 5 5 5 5 5 4 4 3 4 4 4 5 5 5 5 4 5 5 6
2 4 4 5 5 7 7 8 6 4 4 2 1 2 2 2 3 3 3 3 2 2 3 3 3 4 4 4 4 3 5 5 5 5 5 5 4 4 4 5 5 5 4 5 5 5 5 5 5
5 4 4 4 4 6 7 6 2 4 3 3 3 3 3 4 4 4 3 3 2 2 2 2 3 3 3 4 4 4 4 5 5 5 5 5 4 4 5 5 5 5 5 5 5 5 5 6 6
5 6 7 5 5 5 6 7 0 3 3 4 5 5 4 4 4 4 4 3 2 2 2 3 3 3 4 4 4 4 4 4 5 5 5 4 4 5 5 5 5 5 5 5 6 6 6 7 7
Wind_Direction
330 328 278 232 210 219 229 214 219 177 174 58 358 256 250 285 316 32 73 130 135 146 150 152 144 143 137 128 122 118 115 114 115 115 108 108 108 106 105 105 101 98 97 95 94 95 92 89 88
334 311 229 217 226 222 215 204 211 210 68 96 142 215 200 95 28 55 115 142 150 148 150 149 132 140 136 130 126 124 124 121 116 110 109 104 107 106 104 104 103 101 100 99 99 97 94 90 88
319 321 227 198 219 232 210 174 200 138 146 221 167 46 337 34 67 80 103 150 153 149 151 138 130 138 138 134 130 127 125 122 119 113 107 104 103 107 104 102 98 100 100 100 99 99 98 95 90
239 175 198 221 217 227 246 133 164 178 169 203 213 155 121 39 13 53 124 149 150 148 145 134 129 135 138 136 132 128 126 123 117 114 108 102 94 103 107 105 100 99 105 103 100 102 103 100 94
219 205 205 218 227 220 237 261 216 224 204 168 229 195 141 86 49 109 139 148 152 150 146 140 124 127 131 133 130 126 124 120 116 115 109 102 99 91 107 106 105 101 102 101 99 103 106 104 97
177 208 221 226 221 222 231 223 223 245 245 229 230 219 124 86 101 121 138 146 151 150 150 145 120 117 124 129 129 127 126 120 115 112 110 103 98 109 98 110 111 109 104 103 103 106 107 103 101
207 209 230 232 230 226 221 192 223 244 246 257 272 224 146 121 106 129 143 145 147 149 150 150 150 144 129 122 123 123 120 120 116 110 108 103 95 102 95 90 113 116 110 106 105 109 110 105 106
237 207 214 222 230 229 186 177 239 263 267 349 275 252 219 69 125 141 141 142 146 152 162 165 167 166 164 154 124 114 108 107 104 101 98 99 99 99 99 94 106 112 110 108 109 107 109 104 102
214 221 222 215 223 218 168 193 163 334 185 112 314 323 6 87 140 143 148 153 165 166 174 184 188 184 178 167 143 133 116 104 107 107 99 107 122 121 111 77 89 104 104 107 110 110 105 102 104
208 225 227 224 225 220 183 224 213 193 242 256 260 302 44 135 158 171 181 187 193 197 196 193 189 188 198 175 161 157 154 139 139 132 126 124 112 93 83 76 84 96 100 111 108 108 117 128 132
207 230 218 212 214 232 219 240 247 230 253 260 263 269 203 178 191 205 208 205 207 205 204 211 207 196 198 192 175 163 163 163 161 148 138 135 129 121 115 105 132 136 137 139 130 140 146 149 148
203 230 231 225 202 218 232 231 231 244 260 296 285 262 206 208 215 221 222 220 217 212 211 209 207 204 200 212 196 174 177 177 173 162 155 157 160 163 154 139 197 181 174 167 172 172 164 177 187
214 221 213 222 199 225 232 241 252 261 264 271 277 243 232 230 236 238 234 231 226 221 219 214 205 206 200 210 206 189 189 187 182 180 173 181 187 189 183 180 221 204 188 186 188 189 189 194 197
193 211 238 251 236 224 233 253 248 260 257 253 247 245 243 238 241 242 235 232 229 227 222 215 207 207 202 206 204 200 197 189 191 189 186 193 200 198 202 205 228 212 196 199 200 200 199 207 213
170 212 240 234 227 222 239 257 236 249 246 250 249 249 249 245 244 243 239 235 231 229 224 217 212 206 204 207 206 202 199 195 197 196 192 194 202 201 201 211 221 223 196 194 199 196 198 207 217
183 214 232 198 211 204 227 262 249 237 240 251 256 254 253 252 249 248 246 241 236 229 223 219 212 210 209 205 201 198 198 196 200 205 200 200 205 207 203 208 217 222 202 193 196 199 207 212 227
203 225 234 228 186 190 223 263 272 234 242 255 259 259 259 261 260 257 251 243 234 226 219 213 209 210 210 205 199 195 195 200 201 203 208 209 211 214 209 213 216 210 198 194 196 206 219 227 239
215 224 239 239 175 210 235 256 267 260 259 265 267 264 262 261 263 263 256 246 236 226 219 212 206 205 202 199 196 193 196 201 201 201 206 209 210 214 212 216 215 207 198 195 199 206 214 229 240
217 227 249 254 227 249 254 266 271 271 264 264 263 261 261 262 268 266 259 247 236 226 219 212 207 202 194 193 196 198 204 200 200 204 207 210 210 213 212 220 212 207 204 202 198 200 203 217 224
213 235 250 261 225 256 275 275 274 266 257 257 259 259 259 265 269 266 261 248 237 227 222 217 213 207 199 199 200 206 204 206 207 208 210 212 212 213 215 216 214 209 206 202 197 194 203 208 202
224 232 244 258 284 242 287 278 263 264 252 256 257 259 260 263 269 272 269 262 251 239 231 224 220 214 207 199 191 183 192 198 204 209 210 213 214 213 214 219 216 210 208 206 203 202 202 208 207
235 230 237 248 264 271 284 286 275 272 269 258 256 256 266 275 275 272 265 262 257 253 242 234 227 218 210 195 193 193 201 209 214 212 211 208 212 217 218 221 218 214 212 211 210 210 214 211 209
216 160 204 230 241 266 240 259 276 270 271 266 265 270 279 285 284 279 277 271 269 264 249 237 228 220 207 198 199 201 210 217 213 204 205 207 209 216 223 221 215 214 215 214 212 213 216 217 216
149 135 134 188 223 254 240 240 273 253 268 292 299 302 303 311 304 298 297 291 281 275 254 235 222 221 208 202 203 207 209 207 204 207 207 210 211 215 218 221 221 219 217 215 215 217 220 224 224
186 182 207 219 222 243 200 238 258 271 272 282 292 300 308 309 308 308 306 301 296 285 270 249 232 233 219 209 210 212 215 213 211 210 212 214 218 223 224 219 222 224 223 220 219 219 222 225 227
197 212 218 233 241 253 210 242 257 280 285 281 282 290 300 310 307 305 296 285 283 277 265 252 241 238 228 221 223 220 219 220 223 221 221 222 226 228 227 225 223 223 221 220 221 223 226 227 229
180 210 249 206 288 268 247 260 274 257 267 267 268 283 305 308 299 297 298 290 287 282 269 255 248 248 241 232 227 225 221 222 228 229 227 228 232 230 227 227 227 227 222 220 220 227 228 230 232
246 174 176 201 221 247 259 256 254 248 251 248 265 289 301 307 309 310 300 292 288 288 284 271 254 250 252 247 238 237 231 227 229 229 229 232 232 229 227 228 232 235 234 230 224 229 230 231 236
176 189 205 203 239 238 254 253 237 232 222 243 263 284 292 298 300 301 301 300 304 313 307 290 269 257 257 256 250 245 239 230 229 230 230 230 228 227 228 230 233 235 235 234 233 235 234 235 238
227 213 196 209 221 237 258 265 229 251 267 267 272 280 286 293 300 304 306 310 311 309 307 298 287 269 259 255 253 249 247 234 228 231 233 228 228 230 232 232 233 236 237 237 236 238 240 240 239